Time,TemperatureF,DewpointF,PressureIn,WindDirection,WindDirectionDegrees,WindSpeedMPH,WindSpeedGustMPH,Humidity,HourlyPrecipIn,Conditions,Clouds,dailyrainin,SoftwareType,DateUTC
2016-08-30 00:15:00,72.0,71.0,-100.00,SE,135,1.0,1.0,95,-99.99,,,-99.99,,2016-08-30 05:15:00,
2016-08-30 00:25:00,72.0,71.0,-100.00,SSW,205,2.0,2.0,95,-99.99,,,-99.99,,2016-08-30 05:25:00,
2016-08-30 00:46:00,71.0,70.0,-100.00,SW,235,3.0,6.0,95,-99.99,,,-99.99,,2016-08-30 05:46:00,
2016-08-30 00:55:00,71.0,70.0,-100.00,WSW,245,4.0,6.0,95,-99.99,,,-99.99,,2016-08-30 05:55:00,
2016-08-30 01:05:00,71.0,70.0,-100.00,West,265,4.0,6.0,95,-99.99,,,-99.99,,2016-08-30 06:05:00,
2016-08-30 01:14:00,71.0,70.0,-100.00,West,265,7.0,-999.0,95,-99.99,,,-99.99,,2016-08-30 06:14:00,
2016-08-30 01:35:00,71.0,69.0,-100.00,West,260,3.0,9.0,95,-99.99,,,-99.99,,2016-08-30 06:35:00,
2016-08-30 01:45:00,70.0,69.0,-100.00,West,260,6.0,9.0,95,-99.99,,,-99.99,,2016-08-30 06:45:00,
2016-08-30 02:05:00,70.0,69.0,-100.00,NW,305,4.0,6.0,95,-99.99,,,-99.99,,2016-08-30 07:05:00,
2016-08-30 02:15:00,70.0,69.0,-100.00,NW,325,3.0,6.0,95,-99.99,,,-99.99,,2016-08-30 07:15:00,
2016-08-30 02:24:00,70.0,69.0,-100.00,NW,325,3.0,4.0,95,-99.99,,,-99.99,,2016-08-30 07:24:00,
2016-08-30 02:36:00,70.0,69.0,-100.00,ENE,75,1.0,4.0,95,-99.99,,,-99.99,,2016-08-30 07:36:00,
2016-08-30 02:54:00,70.0,68.0,-100.00,South,170,2.0,3.0,95,-99.99,,,-99.99,,2016-08-30 07:54:00,
2016-08-30 03:04:00,69.0,68.0,-100.00,South,170,2.0,4.0,95,-99.99,,,-99.99,,2016-08-30 08:04:00,
2016-08-30 03:13:00,69.0,68.0,-100.00,SE,145,2.0,3.0,95,-99.99,,,-99.99,,2016-08-30 08:13:00,
2016-08-30 03:23:00,70.0,68.0,-100.00,NE,50,1.0,2.0,95,-99.99,,,-99.99,,2016-08-30 08:23:00,
2016-08-30 03:34:00,70.0,68.0,-100.00,East,85,0.0,2.0,95,-99.99,,,-99.99,,2016-08-30 08:34:00,
2016-08-30 03:44:00,69.0,68.0,-100.00,SE,145,2.0,4.0,95,-99.99,,,-99.99,,2016-08-30 08:44:00,
2016-08-30 03:56:00,69.0,68.0,-100.00,SSE,155,2.0,4.0,95,-99.99,,,-99.99,,2016-08-30 08:56:00,
2016-08-30 04:04:00,69.0,68.0,-100.00,SSE,155,2.0,4.0,95,-99.99,,,-99.99,,2016-08-30 09:04:00,
2016-08-30 04:13:00,69.0,68.0,-100.00,ESE,110,2.0,2.0,95,-99.99,,,-99.99,,2016-08-30 09:13:00,
2016-08-30 04:24:00,69.0,67.0,-100.00,SE,135,2.0,2.0,95,-99.99,,,-99.99,,2016-08-30 09:24:00,
2016-08-30 04:34:00,69.0,67.0,-100.00,SE,130,2.0,3.0,95,-99.99,,,-99.99,,2016-08-30 09:34:00,
2016-08-30 04:46:00,69.0,67.0,-100.00,SSE,150,2.0,-999.0,95,-99.99,,,-99.99,,2016-08-30 09:46:00,
2016-08-30 04:54:00,69.0,67.0,-100.00,ESE,115,2.0,2.0,95,-99.99,,,-99.99,,2016-08-30 09:54:00,
2016-08-30 05:04:00,69.0,67.0,-100.00,East,95,2.0,3.0,95,-99.99,,,-99.99,,2016-08-30 10:04:00,
2016-08-30 05:14:00,69.0,67.0,-100.00,SE,145,0.0,1.0,95,-99.99,,,-99.99,,2016-08-30 10:14:00,
2016-08-30 05:24:00,69.0,67.0,-100.00,South,185,2.0,-999.0,95,-99.99,,,-99.99,,2016-08-30 10:24:00,
2016-08-30 05:34:00,69.0,68.0,-100.00,SSE,160,1.0,2.0,95,-99.99,,,-99.99,,2016-08-30 10:34:00,
2016-08-30 05:44:00,69.0,67.0,-100.00,SSW,210,2.0,3.0,95,-99.99,,,-99.99,,2016-08-30 10:44:00,
2016-08-30 06:06:00,69.0,68.0,-100.00,WNW,285,3.0,4.0,95,-99.99,,,-99.99,,2016-08-30 11:06:00,
2016-08-30 06:15:00,69.0,68.0,-100.00,WNW,300,2.0,4.0,95,-99.99,,,-99.99,,2016-08-30 11:15:00,
2016-08-30 06:38:00,69.0,68.0,-100.00,WSW,250,1.0,-999.0,95,-99.99,,,-99.99,,2016-08-30 11:38:00,
2016-08-30 06:46:00,69.0,68.0,-100.00,WSW,250,1.0,2.0,95,-99.99,,,-99.99,,2016-08-30 11:46:00,
2016-08-30 07:25:00,69.0,68.0,-100.00,SW,230,2.0,3.0,95,-99.99,,,-99.99,,2016-08-30 12:25:00,
2016-08-30 07:37:00,70.0,69.0,-100.00,NE,45,-999.9,-999.0,95,-99.99,,,-99.99,,2016-08-30 12:37:00,
2016-08-30 07:45:00,70.0,69.0,-100.00,NE,45,0.0,2.0,95,-99.99,,,-99.99,,2016-08-30 12:45:00,
2016-08-30 07:55:00,70.0,69.0,-100.00,NW,315,1.0,2.0,95,-99.99,,,-99.99,,2016-08-30 12:55:00,
2016-08-30 08:05:00,71.0,69.0,-100.00,NW,325,1.0,1.0,95,-99.99,,,-99.99,,2016-08-30 13:05:00,
2016-08-30 08:14:00,71.0,69.0,-100.00,WNW,300,2.0,2.0,95,-99.99,,,-99.99,,2016-08-30 13:14:00,
2016-08-30 08:47:00,71.0,69.0,-100.00,West,275,2.0,4.0,95,-99.99,,,-99.99,,2016-08-30 13:47:00,
2016-08-30 09:04:00,71.0,70.0,-100.00,NW,315,1.0,1.0,95,-99.99,,,-99.99,,2016-08-30 14:04:00,
2016-08-30 09:13:00,71.0,70.0,-100.00,NNW,330,1.0,-999.0,95,-99.99,,,-99.99,,2016-08-30 14:13:00,
2016-08-30 09:24:00,73.0,71.0,-100.00,NNW,340,1.0,1.0,95,-99.99,,,-99.99,,2016-08-30 14:24:00,
2016-08-30 09:34:00,73.0,72.0,-100.00,North,0,1.0,2.0,95,-99.99,,,-99.99,,2016-08-30 14:34:00,
2016-08-30 09:46:00,74.0,72.0,-100.00,NNW,330,2.0,4.0,95,-99.99,,,-99.99,,2016-08-30 14:46:00,
2016-08-30 09:56:00,74.0,72.0,-100.00,NNW,340,1.0,2.0,95,-99.99,,,-99.99,,2016-08-30 14:56:00,
2016-08-30 10:04:00,74.0,72.0,-100.00,NNW,340,1.0,2.0,95,-99.99,,,-99.99,,2016-08-30 15:04:00,
2016-08-30 10:13:00,75.0,73.0,-100.00,North,350,1.0,3.0,95,-99.99,,,-99.99,,2016-08-30 15:13:00,
2016-08-30 10:23:00,74.0,73.0,-100.00,SSE,150,0.0,1.0,95,-99.99,,,-99.99,,2016-08-30 15:23:00,
2016-08-30 10:36:00,75.0,73.0,-100.00,North,0,2.0,4.0,93,-99.99,,,-99.99,,2016-08-30 15:36:00,
2016-08-30 11:14:00,75.0,70.0,-100.00,WSW,255,2.0,-999.0,83,-99.99,,,-99.99,,2016-08-30 16:14:00,
2016-08-30 11:44:00,75.0,67.0,-100.00,SW,230,4.0,7.0,77,-99.99,,,-99.99,,2016-08-30 16:44:00,
2016-08-30 12:15:00,76.0,68.0,-100.00,SW,235,8.0,12.0,78,-99.99,,,-99.99,,2016-08-30 17:15:00,
2016-08-30 12:25:00,77.0,70.0,-100.00,WSW,255,3.0,9.0,78,-99.99,,,-99.99,,2016-08-30 17:25:00,
2016-08-30 12:38:00,78.0,69.0,-100.00,West,270,2.0,6.0,74,-99.99,,,-99.99,,2016-08-30 17:38:00,
2016-08-30 13:06:00,78.0,69.0,-100.00,WSW,255,3.0,6.0,74,-99.99,,,-99.99,,2016-08-30 18:06:00,
2016-08-30 13:13:00,78.0,69.0,-100.00,West,265,4.0,-999.0,73,-99.99,,,-99.99,,2016-08-30 18:13:00,
2016-08-30 13:25:00,78.0,69.0,-100.00,NW,325,6.0,6.0,73,-99.99,,,-99.99,,2016-08-30 18:25:00,
2016-08-30 13:45:00,80.0,70.0,-100.00,WNW,290,2.0,6.0,72,-99.99,,,-99.99,,2016-08-30 18:45:00,
2016-08-30 13:57:00,79.0,69.0,-100.00,NW,310,5.0,7.0,71,-99.99,,,-99.99,,2016-08-30 18:57:00,
2016-08-30 14:06:00,79.0,69.0,-100.00,NW,310,5.0,7.0,71,-99.99,,,-99.99,,2016-08-30 19:06:00,
2016-08-30 14:14:00,79.0,69.0,-100.00,NW,315,6.0,7.0,71,-99.99,,,-99.99,,2016-08-30 19:14:00,
2016-08-30 14:25:00,79.0,69.0,-100.00,NW,315,4.0,6.0,70,-99.99,,,-99.99,,2016-08-30 19:25:00,
2016-08-30 14:47:00,80.0,69.0,-100.00,North,350,4.0,5.0,67,-99.99,,,-99.99,,2016-08-30 19:47:00,
2016-08-30 14:55:00,80.0,68.0,-100.00,NNW,330,6.0,8.0,68,-99.99,,,-99.99,,2016-08-30 19:55:00,
2016-08-30 15:04:00,80.0,68.0,-100.00,NNW,340,6.0,9.0,67,-99.99,,,-99.99,,2016-08-30 20:04:00,
2016-08-30 15:13:00,80.0,67.0,-100.00,NNW,340,7.0,10.0,65,-99.99,,,-99.99,,2016-08-30 20:13:00,
2016-08-30 15:23:00,81.0,67.0,-100.00,NNW,340,7.0,11.0,63,-99.99,,,-99.99,,2016-08-30 20:23:00,
2016-08-30 15:36:00,82.0,68.0,-100.00,NNW,330,7.0,-999.0,61,-99.99,,,-99.99,,2016-08-30 20:36:00,
2016-08-30 15:44:00,82.0,68.0,-100.00,NNW,330,7.0,12.0,61,-99.99,,,-99.99,,2016-08-30 20:44:00,
2016-08-30 15:56:00,82.0,65.0,-100.00,North,350,9.0,12.0,55,-99.99,,,-99.99,,2016-08-30 20:56:00,
2016-08-30 16:04:00,82.0,65.0,-100.00,North,350,9.0,12.0,55,-99.99,,,-99.99,,2016-08-30 21:04:00,
2016-08-30 16:13:00,84.0,65.0,-100.00,NNW,330,9.0,11.0,54,-99.99,,,-99.99,,2016-08-30 21:13:00,
2016-08-30 17:44:00,81.0,63.0,-100.00,North,0,8.0,14.0,55,-99.99,,,-99.99,,2016-08-30 22:44:00,
2016-08-30 18:15:00,79.0,66.0,-100.00,North,0,7.0,11.0,64,-99.99,,,-99.99,,2016-08-30 23:15:00,
2016-08-30 18:25:00,79.0,66.0,-100.00,North,355,7.0,11.0,66,-99.99,,,-99.99,,2016-08-30 23:25:00,
2016-08-30 18:55:00,78.0,67.0,-100.00,North,-9999,-999.9,-999.0,70,-99.99,,,-99.99,,2016-08-30 23:55:00,
2016-08-30 19:06:00,78.0,68.0,-100.00,NNW,340,6.0,7.0,70,-99.99,,,-99.99,,2016-08-31 00:06:00,
2016-08-30 19:15:00,78.0,67.0,-100.00,North,0,6.0,10.0,68,-99.99,,,-99.99,,2016-08-31 00:15:00,
2016-08-30 19:25:00,78.0,67.0,-100.00,North,0,4.0,7.0,69,-99.99,,,-99.99,,2016-08-31 00:25:00,
2016-08-30 19:37:00,77.0,67.0,-100.00,North,0,6.0,-999.0,70,-99.99,,,-99.99,,2016-08-31 00:37:00,
2016-08-30 19:48:00,77.0,67.0,-100.00,North,0,6.0,9.0,70,-99.99,,,-99.99,,2016-08-31 00:48:00,
2016-08-30 19:57:00,77.0,67.0,-100.00,NNW,330,3.0,6.0,72,-99.99,,,-99.99,,2016-08-31 00:57:00,
2016-08-30 20:05:00,77.0,67.0,-100.00,NNW,330,3.0,6.0,72,-99.99,,,-99.99,,2016-08-31 01:05:00,
2016-08-30 20:14:00,76.0,68.0,-100.00,NNW,340,6.0,7.0,75,-99.99,,,-99.99,,2016-08-31 01:14:00,
2016-08-30 20:24:00,76.0,69.0,-100.00,NNW,340,5.0,7.0,78,-99.99,,,-99.99,,2016-08-31 01:24:00,
2016-08-30 20:35:00,76.0,69.0,-100.00,NNW,340,4.0,7.0,79,-99.99,,,-99.99,,2016-08-31 01:35:00,
2016-08-30 20:45:00,76.0,69.0,-100.00,NNW,340,4.0,6.0,80,-99.99,,,-99.99,,2016-08-31 01:45:00,
2016-08-30 20:55:00,75.0,69.0,-100.00,NNW,345,4.0,6.0,81,-99.99,,,-99.99,,2016-08-31 01:55:00,